• In Uzbekistan
  • List of Countries
  • For 7 days
  • Water Temperature
  • Weather Map
  • Weather Widgets
  • user-avatar
    Login

    Hourly Weather Darwin

    Today, 20 January, Monday

    Time Temperature Precipitation Wind Pressure Humidity
    00:00 +30°C° 0.1 mm 4 mps 755 mmHg 83%
    01:00 +30°C° 0.3 mm 4 mps 755 mmHg 83%
    02:00 +30°C° 0.3 mm 5 mps 755 mmHg 82%
    03:00 +30°C° 0 mm 4 mps 754 mmHg 82%
    04:00 +30°C° 1.7 mm 4 mps 755 mmHg 83%
    05:00 +29°C° 1.7 mm 4 mps 755 mmHg 84%
    06:00 +29°C° 1.7 mm 5 mps 755 mmHg 85%
    07:00 +30°C° 0.2 mm 5 mps 755 mmHg 79%
    08:00 +32°C° 0.2 mm 5 mps 756 mmHg 74%
    09:00 +32°C° 0 mm 5 mps 757 mmHg 76%
    10:00 +33°C° 0.4 mm 5 mps 756 mmHg 74%
    11:00 +33°C° 0.4 mm 5 mps 756 mmHg 72%
    12:00 +33°C° 0.4 mm 5 mps 756 mmHg 70%
    13:00 +32°C° 1.6 mm 5 mps 755 mmHg 74%
    14:00 +30°C° 1.6 mm 5 mps 755 mmHg 78%
    15:00 +29°C° 0 mm 5 mps 755 mmHg 82%
    16:00 +29°C° 0.4 mm 5 mps 755 mmHg 83%
    17:00 +29°C° 0.4 mm 4 mps 755 mmHg 85%
    18:00 +28°C° 0.4 mm 4 mps 755 mmHg 86%
    19:00 +28°C° 1.4 mm 4 mps 756 mmHg 87%
    20:00 +28°C° 1.4 mm 4 mps 756 mmHg 87%
    21:00 +28°C° 0 mm 5 mps 757 mmHg 88%
    22:00 +28°C° 0.1 mm 5 mps 757 mmHg 87%
    23:00 +28°C° 0.1 mm 5 mps 757 mmHg 86%

    Tomorrow, 21 January, Tuesday

    Time Temperature Precipitation Wind Pressure Humidity
    00:00 +29°C° 0.1 mm 5 mps 757 mmHg 84%
    01:00 +28°C° 1.6 mm 5 mps 756 mmHg 86%
    02:00 +28°C° 1.6 mm 5 mps 756 mmHg 88%
    03:00 +28°C° 1.6 mm 6 mps 755 mmHg 89%
    04:00 +28°C° 0.3 mm 5 mps 756 mmHg 88%
    05:00 +28°C° 0.3 mm 5 mps 756 mmHg 87%
    06:00 +28°C° 0.3 mm 5 mps 756 mmHg 87%
    07:00 +29°C° 0.3 mm 5 mps 757 mmHg 83%
    08:00 +30°C° 0.3 mm 5 mps 757 mmHg 80%
    09:00 +33°C° 0.3 mm 6 mps 757 mmHg 76%
    10:00 +33°C° 1.2 mm 5 mps 757 mmHg 76%
    11:00 +33°C° 1.2 mm 5 mps 757 mmHg 75%
    12:00 +33°C° 1.2 mm 5 mps 756 mmHg 74%
    13:00 +33°C° 1 mm 6 mps 756 mmHg 74%
    14:00 +33°C° 1 mm 6 mps 756 mmHg 75%
    15:00 +33°C° 1 mm 7 mps 755 mmHg 75%
    16:00 +32°C° 0.6 mm 7 mps 756 mmHg 78%
    17:00 +32°C° 0.6 mm 7 mps 756 mmHg 80%
    18:00 +30°C° 0.6 mm 6 mps 756 mmHg 82%
    19:00 +29°C° 0.5 mm 6 mps 756 mmHg 84%
    20:00 +29°C° 0.5 mm 6 mps 757 mmHg 86%
    21:00 +28°C° 0.5 mm 6 mps 757 mmHg 88%
    22:00 +29°C° 1 mm 7 mps 757 mmHg 86%
    23:00 +29°C° 1 mm 8 mps 757 mmHg 85%

    Day after tomorrow, 22 January, Wednesday

    Time Temperature Precipitation Wind Pressure Humidity
    00:00 +29°C° 1 mm 9 mps 757 mmHg 84%
    01:00 +29°C° 0.9 mm 9 mps 757 mmHg 84%
    02:00 +29°C° 0.9 mm 9 mps 756 mmHg 84%
    03:00 +29°C° 0.9 mm 9 mps 756 mmHg 84%
    04:00 +28°C° 0.8 mm 9 mps 756 mmHg 84%
    05:00 +28°C° 0.8 mm 8 mps 756 mmHg 83%
    06:00 +28°C° 0.8 mm 8 mps 756 mmHg 83%
    07:00 +29°C° 0.8 mm 8 mps 757 mmHg 82%
    08:00 +31°C° 0.8 mm 8 mps 757 mmHg 81%
    09:00 +32°C° 0.8 mm 8 mps 757 mmHg 80%
    10:00 +32°C° 1.8 mm 8 mps 757 mmHg 79%
    11:00 +32°C° 1.8 mm 8 mps 757 mmHg 79%
    12:00 +32°C° 1.8 mm 8 mps 756 mmHg 78%
    13:00 +32°C° 2.5 mm 8 mps 756 mmHg 80%
    14:00 +31°C° 2.5 mm 8 mps 755 mmHg 82%
    15:00 +31°C° 2.5 mm 8 mps 755 mmHg 84%
    16:00 +29°C° 1.9 mm 7 mps 755 mmHg 86%
    17:00 +29°C° 1.9 mm 7 mps 755 mmHg 88%
    18:00 +28°C° 1.9 mm 7 mps 755 mmHg 90%
    19:00 +28°C° 0.9 mm 6 mps 755 mmHg 90%
    20:00 +28°C° 0.9 mm 6 mps 756 mmHg 90%
    21:00 +28°C° 0.9 mm 5 mps 756 mmHg 90%
    22:00 +29°C° 0.9 mm 5 mps 756 mmHg 90%
    23:00 +29°C° 0.9 mm 5 mps 756 mmHg 89%

    23 January, Thursday

    Time Temperature Precipitation Wind Pressure Humidity
    00:00 +29°C° 0.9 mm 5 mps 756 mmHg 89%
    01:00 +29°C° 2.3 mm 6 mps 755 mmHg 88%
    02:00 +29°C° 2.3 mm 6 mps 755 mmHg 87%
    03:00 +29°C° 2.3 mm 7 mps 755 mmHg 85%
    04:00 +28°C° 3.3 mm 6 mps 755 mmHg 87%
    05:00 +28°C° 3.3 mm 5 mps 755 mmHg 89%
    06:00 +27°C° 3.3 mm 5 mps 755 mmHg 91%
    07:00 +28°C° 0.5 mm 4 mps 755 mmHg 89%
    08:00 +28°C° 0.5 mm 4 mps 756 mmHg 88%
    09:00 +28°C° 0.5 mm 4 mps 756 mmHg 86%
    10:00 +29°C° 0.6 mm 5 mps 756 mmHg 84%
    11:00 +30°C° 0.6 mm 5 mps 756 mmHg 82%
    12:00 +30°C° 0.6 mm 6 mps 756 mmHg 80%
    13:00 +32°C° 0 mm 6 mps 755 mmHg 77%
    14:00 +32°C° 0 mm 6 mps 754 mmHg 74%
    15:00 +33°C° 0 mm 5 mps 754 mmHg 72%
    16:00 +32°C° 0 mm 5 mps 754 mmHg 75%
    17:00 +32°C° 0 mm 5 mps 754 mmHg 78%
    18:00 +30°C° 0 mm 5 mps 754 mmHg 82%
    19:00 +30°C° 0 mm 5 mps 754 mmHg 83%
    20:00 +30°C° 0 mm 5 mps 755 mmHg 84%
    21:00 +29°C° 0 mm 5 mps 755 mmHg 86%
    22:00 +29°C° 0.3 mm 5 mps 755 mmHg 86%
    23:00 +30°C° 0.3 mm 5 mps 755 mmHg 86%

    24 January, Friday

    Time Temperature Precipitation Wind Pressure Humidity
    00:00 +30°C° 0.3 mm 6 mps 755 mmHg 87%
    01:00 +29°C° 4.1 mm 6 mps 755 mmHg 88%
    02:00 +29°C° 4.1 mm 6 mps 754 mmHg 90%
    03:00 +28°C° 4.1 mm 5 mps 754 mmHg 92%
    04:00 +28°C° 8.8 mm 4 mps 754 mmHg 93%
    05:00 +28°C° 8.8 mm 4 mps 754 mmHg 95%
    06:00 +27°C° 8.8 mm 3 mps 755 mmHg 96%
    07:00 +28°C° 1.6 mm 4 mps 755 mmHg 94%
    08:00 +28°C° 1.6 mm 4 mps 756 mmHg 92%
    09:00 +29°C° 1.6 mm 5 mps 756 mmHg 90%
    10:00 +29°C° 0.3 mm 5 mps 756 mmHg 87%
    11:00 +30°C° 0.3 mm 5 mps 756 mmHg 84%
    12:00 +32°C° 0.3 mm 6 mps 756 mmHg 81%
    13:00 +32°C° 0.6 mm 6 mps 755 mmHg 80%
    14:00 +32°C° 0.6 mm 6 mps 755 mmHg 80%
    15:00 +32°C° 0.6 mm 7 mps 754 mmHg 80%
    16:00 +32°C° 0.2 mm 7 mps 754 mmHg 82%
    17:00 +30°C° 0.2 mm 7 mps 754 mmHg 84%
    18:00 +29°C° 0.2 mm 6 mps 754 mmHg 86%
    19:00 +29°C° 0 mm 6 mps 754 mmHg 86%
    20:00 +29°C° 0 mm 6 mps 755 mmHg 86%
    21:00 +29°C° 0 mm 5 mps 755 mmHg 86%
    22:00 +29°C° 2.6 mm 6 mps 755 mmHg 87%
    23:00 +29°C° 2.6 mm 6 mps 755 mmHg 87%

    25 January, Saturday

    Time Temperature Precipitation Wind Pressure Humidity
    00:00 +29°C° 2.6 mm 6 mps 755 mmHg 88%
    01:00 +28°C° 5.3 mm 5 mps 755 mmHg 90%
    02:00 +28°C° 5.3 mm 5 mps 754 mmHg 91%
    03:00 +28°C° 5.3 mm 4 mps 754 mmHg 93%
    04:00 +28°C° 0.8 mm 4 mps 754 mmHg 92%
    05:00 +28°C° 0.8 mm 3 mps 754 mmHg 91%
    06:00 +28°C° 0.8 mm 3 mps 755 mmHg 91%
    07:00 +28°C° 1.7 mm 4 mps 755 mmHg 91%
    08:00 +28°C° 1.7 mm 5 mps 755 mmHg 91%
    09:00 +28°C° 1.7 mm 6 mps 756 mmHg 91%
    10:00 +30°C° 0.4 mm 6 mps 755 mmHg 85%
    11:00 +32°C° 0.4 mm 5 mps 755 mmHg 79%
    12:00 +33°C° 0.4 mm 5 mps 755 mmHg 73%
    13:00 +34°C° 0 mm 5 mps 754 mmHg 72%
    14:00 +34°C° 0 mm 5 mps 754 mmHg 71%
    15:00 +34°C° 0 mm 5 mps 753 mmHg 70%
    16:00 +33°C° 0 mm 5 mps 753 mmHg 74%
    17:00 +32°C° 0 mm 5 mps 753 mmHg 78%
    18:00 +32°C° 0 mm 5 mps 754 mmHg 82%
    19:00 +30°C° 0.1 mm 5 mps 754 mmHg 84%
    20:00 +30°C° 0.1 mm 5 mps 754 mmHg 86%
    21:00 +29°C° 0.1 mm 5 mps 755 mmHg 89%
    22:00 +29°C° 0.6 mm 5 mps 755 mmHg 89%
    23:00 +29°C° 0.6 mm 5 mps 755 mmHg 90%
    Show more